DLH4HK EDDF-EKCH

Flight info

Callsign DLH4HK
Flight time N/A
Altitude 37000
Route MARUN3W/25C MARUN Y150 TOLGI DCT SAS DCT MAKEL N851 GESKA Z711 MONAK
Aircraft A320/M-SDE2E3FGIJ1LORWXYZ/HB1

Departure

Time 2026-05-05 09:39
Airport Frankfurt Main Airport (EDDF)

Arrival

Time N/A
Airport Copenhagen Kastrup Airport (EKCH)
Time Latitude Longitude Altitude Speed Heading
2026-05-05 09:11 50.04637 8.56662 356 ft 0 kts 114°
2026-05-05 09:25 50.04641 8.56651 356 ft 4 kts 114°
2026-05-05 09:25 50.04651 8.56615 363 ft 4 kts 114°
2026-05-05 09:25 50.04661 8.56579 362 ft 4 kts 118°
2026-05-05 09:26 50.04675 8.56547 361 ft 4 kts 145°
2026-05-05 09:26 50.04690 8.56539 363 ft 1 kts 205°
2026-05-05 09:26 50.04670 8.56525 356 ft 4 kts 205°
2026-05-05 09:26 50.04647 8.56508 361 ft 4 kts 205°
2026-05-05 09:27 50.04623 8.56491 358 ft 4 kts 205°
2026-05-05 09:27 50.04600 8.56474 364 ft 4 kts 205°
2026-05-05 09:27 50.04580 8.56460 356 ft 1 kts 205°
2026-05-05 09:29 50.04577 8.56458 356 ft 3 kts 204°
2026-05-05 09:30 50.04553 8.56441 360 ft 5 kts 204°
2026-05-05 09:30 50.04509 8.56353 360 ft 16 kts 250°
2026-05-05 09:30 50.04462 8.56155 358 ft 17 kts 249°
2026-05-05 09:30 50.04395 8.56030 356 ft 16 kts 181°
2026-05-05 09:31 50.04297 8.56092 357 ft 16 kts 134°
2026-05-05 09:31 50.04326 8.56301 362 ft 24 kts 70°
2026-05-05 09:31 50.04371 8.56517 361 ft 17 kts 95°
2026-05-05 09:31 50.04276 8.56614 361 ft 18 kts 160°
2026-05-05 09:32 50.04238 8.56739 358 ft 13 kts 71°
2026-05-05 09:32 50.04267 8.56865 361 ft 12 kts 70°
2026-05-05 09:32 50.04302 8.57013 363 ft 16 kts 69°
2026-05-05 09:32 50.04344 8.57186 364 ft 18 kts 70°
2026-05-05 09:33 50.04390 8.57379 363 ft 20 kts 70°
2026-05-05 09:33 50.04442 8.57597 366 ft 21 kts 69°
2026-05-05 09:33 50.04498 8.57829 366 ft 24 kts 69°
2026-05-05 09:33 50.04558 8.58084 367 ft 27 kts 69°
2026-05-05 09:34 50.04622 8.58352 370 ft 26 kts 70°
2026-05-05 09:34 50.04654 8.58483 371 ft 9 kts 71°
2026-05-05 09:34 50.04635 8.58562 370 ft 8 kts 142°
2026-05-05 09:34 50.04596 8.58586 372 ft 0 kts 161°
2026-05-05 09:36 50.04572 8.58599 370 ft 11 kts 160°
2026-05-05 09:37 50.04502 8.58609 371 ft 10 kts 210°
2026-05-05 09:37 50.04479 8.58555 370 ft 0 kts 250°
2026-05-05 09:38 50.04477 8.58546 370 ft 6 kts 250°
2026-05-05 09:38 50.04385 8.58157 368 ft 79 kts 250°
2026-05-05 09:38 50.04110 8.57011 369 ft 143 kts 250°
2026-05-05 09:38 50.03729 8.55366 745 ft 164 kts 250°
2026-05-05 09:39 50.03332 8.53697 1570 ft 165 kts 250°
2026-05-05 09:39 50.02919 8.51995 2236 ft 175 kts 249°
2026-05-05 09:39 50.02381 8.50169 2657 ft 197 kts 235°
2026-05-05 09:39 50.01352 8.48680 3217 ft 207 kts 209°
2026-05-05 09:40 49.99997 8.47980 4017 ft 209 kts 188°
2026-05-05 09:40 49.98553 8.47667 5040 ft 209 kts 188°